STARLINK-31919, 59880

Orbit data source: Space-Track

STARLINK-31919, 59880 is a payload satellite owned by SpaceX/Seattle (US) in LEO that was launched on Fri, 24 May 2024 UTC via an FALCON 9 launch vehicle from the Air Force Eastern Test Range (AFETR). Payload-class satellites include a variety of spacecraft equipped with specific instruments for various scientific and technological missions. These include communications satellites like Starlink; space stations such as the ISS; scientific satellites like the Hubble; Earth observation satellites from companies like Planet Labs, Umbra, and HawkEye 360; GPS; miniature CubeSats for education and research; and military/defense satellites.

Loading next visibility...
Identifier
59880, 2024-098Y
Orbit
LEO
Country
Flag of USUS
Related business
Manufacturer
SpaceX/Seattle
Mission
Operational Commercial Communications
Bus & Motor
STARLINK V2M, Unknown motor
Mass
730 kg wet, ~700 kg dry
Launch date (UTC)
2024-05-24 (2 years ago)
Launch vehicle
FALCON 9
Launch site
Air Force Eastern Test Range (AFETR)
Object type
Payload
Rocket body
Debris
Shape & HBR
Box + 2 Pan, 17.7 m
Radar Cross Section
33.884 m², Large (>1 m²)

Expand to show TLE details & history
Last TLE update: 2 days ago

TLE from 2 days ago
0 STARLINK-31919
1 59880U 24098Y   26171.39833666 -.00002469  00000-0 -80256-4 0  9992
2 59880  43.0037  57.9872 0001428 259.7098 100.3593 15.27570022117553
Epoch: 2026-06-20T09:33Z
TLE epoch observation values (Epoch: 2026-06-20T09:33:36.287Z)
Latitude
Longitude
5.97248°
Altitude
483.031 km
Speed
7.626 km/s
True Right ascension
03h 51m 56s
True Declination
0° 00' 00"
Sunlit
Object was in daylight at epoch
Visualization orbit readout
Latitude
Unknown
Longitude
Unknown
Altitude
Unknown
Speed
Unknown
Apparent Right ascension
Unknown
Apparent Declination
Unknown
Sunlit
N/A
Visualization observer readout
Local Sidereal Time
21:27:54
Azimuth
Unknown
Elevation
Unknown
Doppler factor
Unknown
Orbital elements
Apogee altitude
486.004 km
Perigee altitude
484.043 km
Semi-major axis
6,863.161 km
Eccentricity
0.00014
Inclination
43.0037°
RAAN
57.9872°
Arg. of periapsis
259.7098°
True anomaly
100.3754°
Mean anomaly
100.3593°
Eccentric anomaly
100.36735°
Mean motion
3.81731 °/min
Orbital period
94.31 mins
BSTAR
-0.000080256
Loading maneuver chart data...
Computing Atmospheric mass density...
Loading historical data...
Loading historical data...
Loading historical data...
Loading historical data...
Loading historical data...
Loading historical data...
Loading historical data...

Documentation

Showing up to 5 results
|